CW6353 Weather Reports


Display with metric or nautical units.
time (UTC)temp
F
wind
direction
speed
MPH
gust
MPH
rain 1hr
in
rain 24hr
in
rain mn
in
humidity
%
barometer
mb
20260505001504 70 252 2.0 3.0 0.00 0.00 0.00 48 1013.7
20260505001002 71 265 1.0 7.0 0.00 0.00 0.00 48 1013.6
20260505000504 71 250 2.0 7.0 0.00 0.00 0.00 46 1013.8
20260505000006 72 242 2.0 7.0 0.00 0.00 0.00 45 1013.6
20260504235502 72 225 3.0 9.0 0.00 0.00 0.00 42 1013.6
20260504235004 73 227 3.0 9.0 0.00 0.00 0.00 42 1013.6
20260504234507 73 253 3.0 8.0 0.00 0.00 0.00 40 1013.7
20260504234006 74 242 3.0 6.0 0.00 0.00 0.00 41 1013.7
20260504233504 74 236 2.0 6.0 0.00 0.00 0.00 39 1013.8
20260504233003 75 238 3.0 10.0 0.00 0.00 0.00 38 1013.9
20260504232508 75 240 6.0 10.0 0.00 0.00 0.00 35 1013.9
20260504232004 76 261 2.0 8.0 0.00 0.00 0.00 37 1013.8
20260504231511 76 252 2.0 8.0 0.00 0.00 0.00 39 1013.8
20260504231004 76 252 3.0 9.0 0.00 0.00 0.00 36 1013.9
20260504230503 76 232 2.0 9.0 0.00 0.00 0.00 36 1014.0
20260504230005 76 254 6.0 9.0 0.00 0.00 0.00 33 1014.0
20260504225507 77 192 3.0 9.0 0.00 0.00 0.00 33 1014.0
20260504225004 77 254 5.0 9.0 0.00 0.00 0.00 34 1014.1
20260504224504 77 248 4.0 10.0 0.00 0.00 0.00 32 1014.0
20260504224003 77 219 3.0 10.0 0.00 0.00 0.00 33 1014.0
20260504223503 77 195 4.0 9.0 0.00 0.00 0.00 31 1013.9
20260504223009 78 257 4.0 10.0 0.00 0.00 0.00 30 1014.1
20260504222505 78 232 6.0 9.0 0.00 0.00 0.00 30 1014.2
20260504222006 78 76 2.0 8.0 0.00 0.00 0.00 33 1014.1
20260504221508 78 246 4.0 11.0 0.00 0.00 0.00 32 1014.2
20260504221003 78 226 6.0 11.0 0.00 0.00 0.00 32 1014.3
20260504220507 78 219 4.0 11.0 0.00 0.00 0.00 30 1014.2
20260504220006 78 238 6.0 12.0 0.00 0.00 0.00 27 1014.2
20260504215507 78 207 4.0 12.0 0.00 0.00 0.00 32 1014.2
20260504215005 78 218 4.0 11.0 0.00 0.00 0.00 31 1014.3
20260504214506 78 156 4.0 11.0 0.00 0.00 0.00 33 1014.4
20260504214004 78 218 2.0 13.0 0.00 0.00 0.00 32 1014.3
20260504213506 78 192 7.0 13.0 0.00 0.00 0.00 30 1014.3
20260504213006 78 175 6.0 11.0 0.00 0.00 0.00 33 1014.4
20260504212504 78 240 5.0 15.0 0.00 0.00 0.00 33 1014.2
20260504212007 78 237 4.0 15.0 0.00 0.00 0.00 30 1014.2
20260504211513 78 247 7.0 13.0 0.00 0.00 0.00 31 1014.2
20260504211007 79 213 5.0 12.0 0.00 0.00 0.00 30 1014.2
20260504210503 79 128 5.0 12.0 0.00 0.00 0.00 32 1014.3
20260504210018 79 219 3.0 11.0 0.00 0.00 0.00 30 1014.3
20260504205507 79 175 5.0 11.0 0.00 0.00 0.00 32 1014.4
20260504205004 79 189 2.0 11.0 0.00 0.00 0.00 32 1014.5
20260504204532 79 205 4.0 9.0 0.00 0.00 0.00 32 1014.6
20260504204004 79 299 4.0 10.0 0.00 0.00 0.00 31 1014.4
20260504203503 78 188 4.0 12.0 0.00 0.00 0.00 34 1014.3
20260504203003 78 223 4.0 13.0 0.00 0.00 0.00 36 1014.4
20260504202504 78 223 7.0 13.0 0.00 0.00 0.00 31 1014.5
20260504202002 78 146 2.0 7.0 0.00 0.00 0.00 35 1014.6
20260504201502 78 220 2.0 7.0 0.00 0.00 0.00 32 1014.7
20260504201004 78 211 4.0 10.0 0.00 0.00 0.00 32 1014.9
20260504200502 78 223 5.0 10.0 0.00 0.00 0.00 33 1014.9
20260504200008 78 157 3.0 6.0 0.00 0.00 0.00 37 1014.9
20260504195506 77 155 1.0 10.0 0.00 0.00 0.00 35 1014.9
20260504195002 77 327 4.0 12.0 0.00 0.00 0.00 31 1015.1
20260504194509 78 196 7.0 12.0 0.00 0.00 0.00 33 1015.2
20260504194003 78 264 2.0 6.0 0.00 0.00 0.00 31 1015.2
20260504193502 77 223 2.0 8.0 0.00 0.00 0.00 32 1015.2
20260504193010 77 223 3.0 11.0 0.00 0.00 0.00 34 1015.4
20260504192503 77 210 1.0 11.0 0.00 0.00 0.00 37 1015.5
20260504192005 76 205 4.0 13.0 0.00 0.00 0.00 36 1015.5
20260504191507 77 230 8.0 13.0 0.00 0.00 0.00 36 1015.5
20260504191003 77 261 5.0 11.0 0.00 0.00 0.00 37 1015.5
20260504190502 77 332 2.0 11.0 0.00 0.00 0.00 38 1015.6
20260504190007 77 265 2.0 11.0 0.00 0.00 0.00 35 1015.8
20260504185502 77 228 5.0 11.0 0.00 0.00 0.00 35 1015.8
20260504185002 76 199 2.0 10.0 0.00 0.00 0.00 35 1016.0
20260504184503 77 191 4.0 11.0 0.00 0.00 0.00 37 1015.9
20260504184006 76 210 4.0 11.0 0.00 0.00 0.00 34 1016.0
20260504183503 76 270 3.0 9.0 0.00 0.00 0.00 37 1016.0
20260504183003 76 266 5.0 9.0 0.00 0.00 0.00 40 1016.1
20260504182503 76 202 2.0 8.0 0.00 0.00 0.00 38 1016.1
20260504182005 76 198 1.0 8.0 0.00 0.00 0.00 38 1016.2
20260504181504 75 223 2.0 8.0 0.00 0.00 0.00 36 1016.2
20260504181004 76 209 3.0 9.0 0.00 0.00 0.00 35 1016.4
20260504180507 76 175 3.0 9.0 0.00 0.00 0.00 37 1016.4
20260504180010 75 261 2.0 6.0 0.00 0.00 0.00 37 1016.4
20260504175503 75 220 4.0 6.0 0.00 0.00 0.00 37 1016.5
20260504175001 75 78 1.0 6.0 0.00 0.00 0.00 39 1016.6
20260504174503 75 338 3.0 6.0 0.00 0.00 0.00 40 1016.7
20260504174005 74 98 0.0 7.0 0.00 0.00 0.00 39 1016.7
20260504173503 74 263 3.0 7.0 0.00 0.00 0.00 39 1016.8
20260504173005 74 234 4.0 7.0 0.00 0.00 0.00 36 1016.9
20260504172502 74 223 2.0 10.0 0.00 0.00 0.00 37 1016.9
20260504172004 73 153 3.0 10.0 0.00 0.00 0.00 41 1017.0
20260504171516 74 236 4.0 9.0 0.00 0.00 0.00 38 1017.1
20260504171005 74 153 2.0 9.0 0.00 0.00 0.00 40 1017.1
20260504170506 74 82 2.0 9.0 0.00 0.00 0.00 37 1017.1
20260504151004 69 254 3.0 9.0 0.00 0.00 0.00 50 1017.7
20260504150504 68 246 5.0 9.0 0.00 0.00 0.00 49 1017.8
20260504141008 65 191 5.0 9.0 0.00 0.00 0.00 55 1017.9
20260504140503 65 221 5.0 11.0 0.00 0.00 0.00 56 1018.0
20260504130509 59 215 3.0 5.0 0.00 0.00 0.00 67 1018.1
20260504110502 45 236 0.0 1.0 0.00 0.00 0.00 84 1017.4
20260504100503 46 236 0.0 1.0 0.00 0.00 0.00 82 1017.2
20260504082003 46 211 0.0 3.0 0.00 0.00 0.00 82 1017.3
20260504081518 46 211 1.0 3.0 0.00 0.00 0.00 82 1017.3
20260504081003 46 226 1.0 3.0 0.00 0.00 0.00 81 1017.3
20260504080504 46 212 0.0 2.0 0.00 0.00 0.00 82 1017.4
20260504050502 46 325 0.0 0.0 0.00 0.00 0.00 82 1018.6
20260504050021 46 326 0.0 0.0 0.00 0.00 0.00 82 1018.7
20260504045507 46 326 0.0 0.0 0.00 0.00 0.00 82 1018.7
20260504045007 46 325 0.0 0.0 0.00 0.00 0.00 82 1018.6
20260504044508 46 325 0.0 0.0 0.00 0.00 0.00 81 1018.7
20260504044002 47 325 0.0 2.0 0.00 0.00 0.00 81 1018.6
20260504043503 47 325 0.0 2.0 0.00 0.00 0.00 80 1018.6
20260504043016 47 325 0.0 2.0 0.00 0.00 0.00 81 1018.6
20260504042503 47 325 0.0 2.0 0.00 0.00 0.00 81 1018.6
20260504042007 47 325 0.0 0.0 0.00 0.00 0.00 82 1018.7
20260504041516 47 325 0.0 0.0 0.00 0.00 0.00 81 1018.8
20260504041006 47 325 0.0 0.0 0.00 0.00 0.00 81 1018.9
20260504040507 47 325 0.0 0.0 0.00 0.00 0.00 80 1018.9
20260504040012 47 325 0.0 2.0 0.00 0.00 0.00 81 1018.9
20260504035507 48 325 0.0 2.0 0.00 0.00 0.00 82 1019.0
20260504035008 48 325 0.0 0.0 0.00 0.00 0.00 81 1019.0
20260504034508 48 325 0.0 0.0 0.00 0.00 0.00 82 1019.1
20260504034008 48 325 0.0 0.0 0.00 0.00 0.00 82 1019.2
20260504033508 48 325 0.0 2.0 0.00 0.00 0.00 82 1019.1
20260504033026 48 325 0.0 2.0 0.00 0.00 0.00 81 1019.1
20260504032503 48 325 0.0 2.0 0.00 0.00 0.00 81 1019.1
20260504032005 49 325 1.0 2.0 0.00 0.00 0.00 80 1019.1
20260504031507 49 325 0.0 2.0 0.00 0.00 0.00 80 1018.9
20260504031003 49 325 1.0 1.0 0.00 0.00 0.00 80 1019.0
20260504030505 49 325 1.0 1.0 0.00 0.00 0.00 80 1018.9
20260504030007 49 325 0.0 1.0 0.00 0.00 0.00 79 1018.9
20260504025502 49 325 0.0 1.0 0.00 0.00 0.00 79 1018.9
20260504025003 50 325 0.0 1.0 0.00 0.00 0.00 79 1018.8
20260504024510 50 325 0.0 1.0 0.00 0.00 0.00 79 1018.9
20260504024004 50 325 0.0 2.0 0.00 0.00 0.00 78 1018.8
20260504023503 50 325 0.0 2.0 0.00 0.00 0.00 78 1018.8
20260504023008 50 325 0.0 2.0 0.00 0.00 0.00 78 1018.8
20260504022503 50 325 0.0 2.0 0.00 0.00 0.00 78 1018.8
20260504022003 50 325 0.0 0.0 0.00 0.00 0.00 77 1018.7
20260504021508 50 325 0.0 1.0 0.00 0.00 0.00 78 1018.6
20260504021003 51 325 0.0 1.0 0.00 0.00 0.00 77 1018.5
20260504020503 51 325 0.0 1.0 0.00 0.00 0.00 77 1018.7
20260504020015 51 325 0.0 2.0 0.00 0.00 0.00 77 1018.5
20260504015504 51 325 0.0 2.0 0.00 0.00 0.00 76 1018.5
20260504015004 52 325 0.0 2.0 0.00 0.00 0.00 76 1018.6
20260504014507 52 325 0.0 2.0 0.00 0.00 0.00 76 1018.6
20260504014002 52 325 1.0 2.0 0.00 0.00 0.00 75 1018.5
20260504013505 52 325 0.0 2.0 0.00 0.00 0.00 75 1018.3
20260504013010 52 325 0.0 2.0 0.00 0.00 0.00 75 1018.2
20260504012505 53 325 0.0 2.0 0.00 0.00 0.00 74 1018.3
20260504012006 53 325 0.0 2.0 0.00 0.00 0.00 75 1018.3
20260504011504 53 325 1.0 2.0 0.00 0.00 0.00 74 1018.2
20260504011004 54 325 1.0 1.0 0.00 0.00 0.00 72 1018.3
20260504010504 54 325 0.0 2.0 0.00 0.00 0.00 72 1018.3
20260504010009 55 325 0.0 2.0 0.00 0.00 0.00 71 1018.3
20260504005504 55 325 1.0 2.0 0.00 0.00 0.00 71 1018.2
20260504005004 56 325 0.0 2.0 0.00 0.00 0.00 70 1018.3
20260504004519 56 325 0.0 2.0 0.00 0.00 0.00 67 1018.1
20260504004006 57 325 0.0 2.0 0.00 0.00 0.00 67 1018.0
20260504003503 58 325 1.0 2.0 0.00 0.00 0.00 65 1018.0
20260504003010 58 325 0.0 2.0 0.00 0.00 0.00 65 1017.9
20260504002506 59 325 1.0 1.0 0.00 0.00 0.00 63 1017.9
20260504002007 60 325 0.0 2.0 0.00 0.00 0.00 61 1018.0